Volver al catálogo

ADEOS

ActivoCienciaSSO
NORAD 24277·PAYLOAD·🇯🇵 Japan

Lanzado Aug 17, 1996 desde Tanegashima Space Center

Loading…

Próximos Pases (próximas 24 horas)

TLE

ActualizadoSource: Space-Track

Época: Sep 14, 2026, 13:25 UTC

1 24277U 96046A   26257.55907670  .00000046  00000-0  35084-4 0  9992
2 24277  98.7910 312.9500 0001269 158.8739 201.2495 14.30415672568440

Sigue ADEOS en tiempo real con AllMySat

Download on the App Store